Simultaneous Nadir Overpasses (SNOs) Predictions

Prediction of SNOs between GOES-14 and AQUA Satellite Orbit:

Table of predicted SNOs for the next 14.0 days since TLE Epoch: 9/12/2020
Index Date Time (GOES-14) GOES-14 Lat,Lon AQUA Lat,Lon Distance(km) Time Diff (sec)
1 09/12/2020 08:47:57 0.36,-104.42 1.01,-107.59 359.32 80
2 09/14/2020 08:35:45 0.35,-104.41 0.42,-104.62 25.07 80
3 09/16/2020 08:20:54 0.35,-104.39 -0.23,-101.67 309.44 80
4 09/16/2020 20:42:19 -0.34,-104.46 -0.85,-106.87 274.00 80
5 09/18/2020 20:32:47 -0.34,-104.46 -0.25,-103.91 61.31 80
6 09/20/2020 20:20:36 -0.34,-104.45 0.41,-100.96 396.69 80
7 09/21/2020 08:41:51 0.32,-104.40 0.69,-106.12 195.73 80
8 09/23/2020 08:26:59 0.33,-104.38 0.09,-103.15 138.62 80
9 09/23/2020 20:48:24 -0.31,-104.40 -1.16,-108.36 449.50 80
10 09/25/2020 08:14:48 0.32,-104.36 -0.57,-100.21 472.98 80
11 09/25/2020 20:36:12 -0.30,-104.40 -0.55,-105.40 114.48 80
